Wind_Speed
31 30 29 29 30 28 27 26 24 23 21 21 19 18 19 18 16 14 13 11 9 7 6 6 5 6 9 13 19 16 29 33 33 29 26 21 19 21 14 14 16 18 17 15 12
31 31 30 29 27 29 28 26 26 25 23 22 23 22 21 20 16 12 13 12 10 7 5 6 5 6 17 5 22 24 22 29 28 23 19 17 14 9 12 13 15 18 21 14 14
28 28 30 30 27 27 27 25 25 26 25 24 25 23 21 21 18 13 14 11 11 8 7 6 8 4 8 11 9 7 8 11 11 13 11 6 5 7 8 10 12 18 17 17 15
28 29 29 29 28 28 26 25 26 26 26 25 24 24 24 21 18 16 15 12 11 9 9 11 5 5 6 2 7 5 5 6 9 8 5 7 9 6 11 10 15 16 15 17 18
29 30 30 30 29 30 29 26 27 26 26 26 26 26 24 20 18 17 17 15 12 11 12 10 9 9 5 2 3 5 7 7 8 5 7 11 11 8 8 13 16 15 14 14 14
32 32 33 32 30 29 29 28 27 26 26 27 26 26 23 22 21 19 18 17 14 12 15 17 16 7 6 5 6 8 10 10 10 6 9 9 7 10 14 13 14 13 13 10 11
33 34 34 32 32 29 30 29 28 29 26 25 24 25 24 23 23 22 21 20 18 14 16 17 13 9 7 4 6 10 10 10 18 17 14 12 11 11 13 12 10 12 8 12 15
35 35 34 33 32 31 30 29 28 29 27 25 25 27 26 25 28 23 24 23 22 19 18 19 15 15 7 5 2 6 9 7 18 17 20 16 11 13 16 10 12 14 13 9 10
36 36 36 35 34 33 30 30 30 29 29 28 26 25 26 24 25 28 25 26 25 24 21 20 20 21 15 4 1 6 8 7 17 11 8 19 16 5 12 11 14 17 14 14 9
35 35 34 36 34 33 31 31 31 30 31 29 28 29 25 28 30 28 28 28 28 28 27 24 23 23 20 17 7 6 3 10 3 9 10 18 24 17 18 17 19 20 15 11 12
29 31 32 33 35 35 35 33 32 35 34 33 31 31 27 31 33 29 31 31 29 32 32 28 27 26 17 18 17 20 10 9 13 21 25 20 19 5 13 13 13 17 18 16 19
32 33 35 37 38 39 38 38 37 38 37 37 35 35 32 34 33 33 32 33 31 33 32 31 35 28 22 21 20 18 17 16 5 9 13 10 6 22 21 18 13 16 18 16 17
38 40 41 42 43 43 43 43 43 42 42 39 39 39 35 37 35 35 35 36 33 33 30 31 41 32 26 24 21 18 19 17 13 14 7 14 18 21 22 5 12 17 16 19 27
43 43 43 42 42 42 42 43 42 43 40 40 40 37 34 37 38 36 37 37 36 33 31 34 38 35 32 30 29 30 24 23 23 25 20 13 24 16 14 15 16 10 12 23 28
34 32 30 30 30 31 31 32 33 34 32 37 36 36 32 34 37 39 40 36 37 37 33 34 34 33 32 37 34 36 31 29 33 34 29 27 31 19 17 24 18 20 20 16 17
23 22 20 19 19 19 20 23 25 27 27 33 34 34 32 32 35 36 40 38 39 37 33 34 34 32 32 34 29 29 27 29 31 30 39 29 23 23 15 22 23 22 31 25 18
19 21 21 21 20 20 19 19 20 17 21 23 30 30 32 32 32 36 38 40 39 37 35 35 35 34 32 33 33 31 30 32 30 30 33 28 27 24 26 24 30 30 34 31 18
24 24 24 24 24 22 21 22 25 20 17 18 22 27 28 30 32 34 37 39 41 40 39 36 36 35 34 33 37 33 34 33 31 32 33 26 26 26 34 27 34 28 29 36 24
30 29 28 30 28 28 27 30 31 23 24 23 22 21 24 28 29 31 36 38 39 41 41 41 40 40 37 36 37 36 33 35 31 34 34 20 29 34 35 39 39 29 33 26 31
29 28 29 33 30 29 30 35 35 31 29 30 29 26 25 25 26 29 35 37 39 40 41 42 43 41 39 38 36 37 38 36 29 33 33 29 28 38 32 40 45 36 30 41 36
33 32 33 38 35 35 36 40 40 39 33 33 38 33 32 29 29 28 27 36 38 38 39 41 38 41 39 36 38 41 37 35 33 33 32 31 34 36 43 47 51 44 30 31 39
38 37 38 41 43 42 42 44 46 46 42 36 42 41 38 39 33 30 30 26 34 37 36 40 38 37 38 35 39 36 36 35 31 32 32 38 27 40 38 37 44 49 51 36 42
42 42 43 46 49 49 50 51 56 54 50 45 46 48 44 43 41 37 33 32 30 35 37 36 34 35 33 34 34 39 38 34 29 31 29 35 28 39 37 36 36 37 36 37 38
49 49 52 53 53 57 59 60 60 61 59 55 52 56 51 49 48 45 42 45 38 29 37 38 37 36 34 40 39 37 33 31 28 27 31 30 38 35 40 39 38 26 15 26 24
56 56 59 59 61 64 66 67 64 68 65 64 60 63 61 58 57 54 52 45 32 29 34 35 36 36 40 36 32 33 32 30 30 31 30 33 36 43 37 31 17 16 10 21 28
63 65 64 68 70 71 72 71 68 70 73 75 71 71 68 69 66 62 55 46 37 32 32 26 33 38 40 35 35 33 32 35 34 32 31 35 38 43 34 29 23 22 15 23 29
70 72 71 78 78 74 75 71 74 74 74 75 79 74 78 76 67 65 59 48 42 41 37 35 33 38 39 40 39 34 31 37 35 34 33 34 38 44 37 32 26 21 18 23 34
Wind_Direction
266 266 269 271 273 274 273 274 276 279 286 288 298 303 308 309 304 300 306 309 304 295 302 284 264 212 209 208 230 252 253 265 266 276 285 290 288 287 298 307 320 327 318 302 303
263 264 266 268 271 274 275 275 278 280 282 287 293 297 303 301 299 284 291 297 297 279 267 258 269 207 180 212 232 247 267 266 271 278 282 275 280 301 321 316 337 333 317 310 306
258 258 263 267 268 270 272 273 274 278 280 282 286 289 294 295 289 281 281 281 289 271 241 217 236 164 224 240 242 268 293 292 292 284 262 269 275 330 348 352 336 341 331 315 317
255 256 259 263 267 268 268 269 270 274 275 279 279 283 288 284 279 275 272 266 270 266 235 222 195 186 243 358 268 305 307 302 286 286 263 274 285 319 308 329 327 338 337 330 330
254 256 258 261 264 267 269 269 271 270 270 273 276 277 276 272 268 268 268 263 251 256 226 223 193 170 246 207 276 10 356 356 351 294 279 287 291 310 332 329 353 346 356 350 333
255 257 259 262 263 266 267 268 271 269 267 269 268 268 267 263 259 260 259 260 248 247 224 209 210 229 225 327 327 341 352 21 27 317 284 297 294 310 329 353 10 1 21 7 360
254 255 257 261 262 261 265 267 269 270 267 266 263 262 263 256 256 250 251 251 248 242 229 217 212 198 227 224 352 356 43 66 29 13 360 336 315 317 337 348 354 3 27 39 19
252 256 256 258 262 264 263 265 267 269 271 268 261 260 260 259 256 247 242 245 246 240 231 219 205 200 195 166 301 19 4 15 347 23 359 345 355 325 327 335 339 332 327 338 340
252 256 257 257 259 261 261 264 267 267 269 269 264 260 254 260 252 251 240 240 240 240 232 222 214 208 207 214 311 18 15 299 314 340 348 341 329 312 299 307 305 317 327 328 309
255 258 259 259 259 260 261 262 263 263 265 268 266 260 257 252 251 252 250 239 234 236 235 228 218 225 213 227 217 200 65 282 3 304 311 323 313 306 296 303 313 323 320 318 327
255 256 257 257 257 256 257 257 258 260 262 263 263 263 256 255 249 248 248 248 235 234 237 234 230 221 218 217 215 237 248 260 216 315 321 303 305 283 350 340 334 336 320 304 300
256 258 259 261 262 263 262 261 261 261 262 263 262 262 257 254 252 246 245 247 242 236 234 239 240 228 208 216 221 213 199 247 262 298 326 334 321 287 298 303 320 325 321 308 304
263 266 266 267 266 267 267 266 265 263 265 263 261 260 254 253 251 246 243 244 245 241 236 234 244 239 226 228 216 224 224 234 206 174 268 213 230 231 223 278 298 293 300 305 303
271 273 275 275 271 271 270 267 264 262 261 260 259 257 254 250 246 248 243 244 248 246 239 239 244 241 233 233 235 228 238 231 222 226 247 223 222 227 209 256 270 256 326 321 309
273 271 271 273 272 273 272 270 265 260 256 258 255 254 250 247 245 240 242 243 245 245 241 240 241 246 241 240 230 243 237 236 223 227 245 258 230 197 233 241 269 273 278 300 289
267 270 273 276 281 281 278 271 266 262 257 255 256 251 248 246 242 240 240 241 244 246 244 242 242 242 242 245 243 238 234 229 232 231 241 220 228 257 265 280 289 257 274 283 289
268 274 277 280 282 285 286 288 280 272 257 251 254 254 251 247 243 241 237 240 241 241 240 239 243 239 236 240 241 240 234 232 236 240 240 225 226 235 236 237 247 250 268 262 266
268 268 272 272 274 275 280 284 280 278 278 262 251 255 249 252 244 243 241 239 239 239 237 237 239 239 236 233 239 237 237 239 241 240 242 223 218 220 224 239 239 252 256 253 265
271 273 275 275 276 276 277 277 274 276 276 272 267 252 257 250 250 247 247 240 242 242 242 238 238 237 239 238 242 241 244 245 240 241 245 222 233 214 215 226 229 244 247 241 257
271 273 276 275 274 277 277 275 276 272 270 276 269 264 255 254 252 247 249 246 243 242 242 243 242 243 243 241 243 246 243 246 243 248 249 245 236 226 216 224 232 231 247 258 254
274 274 272 273 279 279 277 274 273 272 272 269 271 264 262 256 253 248 250 248 244 241 240 242 242 243 242 243 240 243 246 247 244 246 248 247 235 238 223 231 234 231 200 242 262
270 272 268 271 272 272 270 271 273 273 269 264 268 265 261 261 255 257 251 252 250 242 241 242 239 242 244 240 242 245 248 245 245 244 241 244 227 241 242 237 240 236 223 235 263
273 275 273 272 273 275 274 273 272 270 269 266 265 263 262 262 260 254 252 251 247 243 241 240 239 238 239 242 241 241 239 243 242 243 244 247 239 238 245 247 251 252 250 243 243
274 275 274 275 278 277 276 274 273 270 266 261 258 260 257 254 254 252 249 244 237 238 237 236 235 235 236 238 238 238 239 238 236 239 241 243 247 224 239 243 245 252 227 225 225
277 276 276 277 279 278 277 273 271 270 265 262 257 255 251 251 250 249 247 248 247 254 253 243 239 237 239 240 242 240 239 240 236 232 233 239 247 254 241 244 256 269 220 229 243
278 279 277 278 277 276 274 270 268 265 264 263 257 251 250 248 246 245 247 246 244 244 260 254 252 243 239 238 239 234 234 235 233 230 229 237 243 253 257 258 259 255 222 228 235
278 278 279 279 280 278 279 276 272 267 262 256 254 248 247 246 247 248 247 244 241 243 241 244 238 242 240 237 236 234 230 232 232 232 230 237 244 255 246 250 258 258 266 257 249
Height
10986 10987 10988 10989 10990 10992 10993 10995 10996 10998 10999 11000 11001 11002 11003 11003 11003 11002 11001 11002 11002 11002 11001 11000 11001 11005 11011 11009 10986 10998 10999 11002 11003 11001 10997 10995 10995 10994 10993 10991 10988 10986 10984 10982 10981
10981 10982 10983 10984 10985 10985 10987 10990 10991 10992 10994 10995 10996 10997 10998 10999 11000 10999 10999 10998 10999 11000 10999 10998 10998 11002 11001 11004 11003 10999 11001 11000 10997 10995 10993 10992 10993 10992 10991 10989 10986 10984 10982 10980 10979
10975 10977 10978 10978 10980 10981 10981 10984 10985 10986 10988 10990 10991 10993 10994 10994 10995 10996 10995 10996 10995 10998 10998 10998 10996 10995 10999 11000 10998 10997 10995 10993 10992 10991 10991 10991 10991 10991 10992 10991 10988 10984 10981 10979 10978
10970 10972 10972 10973 10974 10975 10976 10978 10980 10981 10981 10984 10986 10987 10989 10989 10991 10992 10991 10993 10993 10995 10996 10995 10996 10997 10998 10995 10997 10996 10994 10991 10991 10991 10991 10992 10991 10992 10991 10990 10987 10985 10982 10979 10977
10964 10966 10967 10967 10969 10969 10970 10972 10973 10976 10976 10978 10979 10981 10983 10984 10985 10987 10987 10989 10991 10992 10992 10993 10996 10995 10993 10992 10997 10995 10992 10991 10991 10991 10992 10992 10992 10992 10991 10990 10987 10985 10982 10979 10975
10958 10960 10961 10962 10963 10963 10964 10965 10967 10969 10970 10971 10973 10974 10976 10978 10980 10982 10983 10983 10987 10989 10987 10991 10993 10996 10993 10994 10994 10993 10991 10991 10990 10990 10991 10992 10992 10991 10991 10988 10987 10986 10983 10981 10977
10951 10953 10954 10955 10955 10957 10957 10959 10960 10961 10964 10966 10967 10968 10969 10973 10974 10977 10979 10979 10982 10985 10983 10986 10990 10992 10992 10992 10992 10990 10989 10992 10991 10990 10991 10991 10992 10992 10991 10990 10989 10987 10986 10984 10981
10945 10946 10948 10949 10949 10950 10951 10952 10954 10955 10957 10959 10961 10962 10963 10966 10966 10971 10973 10975 10977 10980 10981 10983 10987 10988 10988 10992 10988 10988 10990 10991 10991 10991 10991 10989 10989 10990 10989 10989 10989 10987 10987 10986 10984
10937 10938 10939 10940 10942 10943 10944 10946 10948 10950 10950 10952 10955 10957 10957 10960 10961 10962 10967 10971 10972 10974 10976 10980 10983 10984 10986 10988 10988 10987 10990 10989 10989 10987 10988 10988 10986 10985 10985 10983 10983 10984 10985 10986 10985
10930 10931 10932 10933 10934 10936 10937 10939 10941 10942 10943 10947 10948 10948 10953 10953 10953 10956 10959 10963 10968 10968 10970 10974 10978 10978 10984 10983 10982 10986 10987 10986 10984 10982 10983 10985 10984 10981 10981 10980 10980 10980 10982 10983 10983
10922 10923 10924 10925 10926 10927 10930 10932 10934 10934 10936 10939 10941 10942 10945 10945 10946 10951 10951 10954 10961 10964 10964 10968 10971 10975 10980 10980 10982 10984 10986 10983 10984 10982 10982 10985 10984 10981 10982 10979 10978 10978 10979 10981 10982
10915 10916 10917 10917 10918 10919 10921 10922 10925 10926 10928 10931 10932 10934 10937 10937 10939 10943 10945 10946 10952 10955 10961 10963 10960 10969 10977 10978 10977 10978 10983 10981 10983 10981 10983 10986 10983 10976 10982 10986 10981 10979 10977 10979 10981
10907 10908 10908 10909 10909 10910 10911 10913 10915 10917 10918 10923 10923 10923 10929 10929 10932 10934 10937 10938 10943 10948 10954 10958 10952 10962 10970 10971 10972 10971 10978 10979 10982 10982 10979 10985 10986 10974 10977 10977 10980 10980 10977 10979 10981
10898 10898 10899 10899 10899 10899 10900 10901 10902 10905 10909 10909 10911 10914 10918 10921 10923 10926 10929 10932 10935 10940 10946 10949 10947 10954 10963 10966 10968 10971 10972 10974 10981 10973 10973 10973 10974 10971 10968 10973 10979 10976 10974 10978 10983
10888 10888 10889 10888 10888 10888 10889 10889 10891 10894 10900 10897 10901 10903 10907 10910 10915 10916 10919 10925 10927 10929 10936 10939 10942 10945 10951 10955 10963 10964 10968 10965 10964 10973 10971 10964 10966 10966 10967 10967 10968 10970 10971 10975 10978
10881 10881 10882 10881 10881 10881 10881 10881 10881 10885 10889 10889 10890 10893 10897 10900 10904 10910 10911 10915 10918 10922 10928 10931 10934 10939 10943 10945 10953 10957 10959 10961 10963 10968 10957 10969 10968 10964 10964 10965 10966 10966 10969 10972 10974
10875 10875 10875 10876 10876 10876 10876 10875 10875 10878 10879 10882 10882 10885 10888 10891 10895 10898 10902 10906 10910 10914 10918 10922 10926 10931 10936 10939 10943 10948 10952 10955 10958 10958 10955 10963 10961 10962 10968 10964 10967 10968 10966 10968 10966
10868 10869 10869 10869 10869 10870 10871 10870 10868 10872 10874 10875 10877 10876 10880 10882 10886 10888 10893 10897 10900 10905 10908 10914 10919 10922 10927 10931 10933 10939 10943 10948 10951 10949 10946 10956 10959 10960 10958 10958 10958 10959 10959 10962 10964
10860 10861 10862 10860 10862 10863 10864 10862 10861 10866 10866 10867 10869 10872 10872 10875 10877 10881 10882 10887 10891 10895 10900 10905 10909 10911 10917 10921 10925 10930 10935 10936 10941 10939 10938 10948 10945 10946 10948 10951 10951 10950 10950 10955 10960
10851 10853 10852 10850 10854 10855 10856 10852 10853 10857 10860 10860 10861 10864 10865 10867 10868 10872 10873 10876 10880 10885 10890 10893 10898 10904 10909 10913 10918 10921 10922 10926 10933 10931 10932 10935 10937 10935 10944 10942 10940 10949 10952 10945 10949
10841 10844 10845 10840 10844 10846 10846 10844 10845 10846 10853 10853 10851 10855 10856 10858 10860 10862 10864 10866 10870 10874 10879 10882 10889 10894 10898 10905 10908 10909 10914 10919 10921 10924 10925 10926 10927 10932 10929 10932 10937 10947 10950 10942 10938
10830 10833 10833 10832 10832 10833 10835 10833 10834 10834 10839 10845 10841 10843 10846 10846 10850 10855 10856 10859 10862 10865 10870 10872 10879 10884 10889 10895 10897 10902 10906 10909 10914 10915 10916 10913 10926 10920 10923 10929 10930 10935 10941 10944 10940
10818 10819 10821 10818 10817 10820 10822 10822 10818 10821 10826 10833 10832 10831 10835 10838 10840 10843 10845 10849 10850 10854 10859 10864 10871 10875 10880 10885 10890 10890 10894 10900 10907 10907 10910 10908 10918 10913 10915 10917 10917 10921 10933 10947 10942
10803 10805 10803 10801 10805 10803 10802 10803 10804 10804 10808 10813 10820 10817 10823 10824 10825 10830 10833 10827 10836 10845 10848 10853 10859 10866 10871 10870 10875 10881 10888 10893 10898 10901 10900 10902 10898 10911 10909 10909 10911 10920 10926 10932 10932
10785 10787 10784 10786 10785 10783 10783 10781 10785 10782 10787 10789 10799 10800 10803 10809 10809 10811 10816 10829 10841 10846 10844 10848 10853 10857 10858 10864 10870 10875 10881 10886 10891 10893 10895 10893 10890 10886 10898 10908 10914 10913 10919 10921 10919
10766 10766 10766 10761 10762 10761 10757 10756 10760 10759 10762 10764 10771 10776 10785 10786 10791 10798 10810 10821 10830 10835 10837 10842 10847 10849 10850 10856 10860 10868 10874 10877 10882 10886 10890 10889 10887 10884 10893 10898 10905 10910 10913 10914 10915
10744 10741 10742 10731 10733 10731 10727 10729 10727 10729 10730 10734 10738 10757 10758 10761 10785 10792 10799 10810 10818 10821 10826 10829 10831 10837 10843 10845 10848 10858 10867 10869 10874 10877 10882 10885 10883 10877 10890 10898 10902 10905 10909 10906 10906